Jacksonville, AR

8:24 PM CST on February 11, 2016 (GMT -0600)
Little Rock Air Force Base

Weather History for KLRF - September, 2013

Change the Weather History Date:

Saturday, September 14, 2013

  Actual Average Record
Temperature  
Mean Temperature 67 °F -  
Max Temperature 79 °F 84 °F 103 °F (1980)
Min Temperature 55 °F 62 °F 50 °F (1968)
Cooling Degree Days 2    
Growing Degree Days 17 (Base 50)    
Moisture  
Dew Point 52 °F    
Average Humidity 65    
Maximum Humidity 91    
Minimum Humidity 33    
Precipitation  
Precipitation 0.00 in - - ()
Sea Level Pressure  
Sea Level Pressure 30.07 in    
Wind  
Wind Speed 4 mph (ENE)    
Max Wind Speed 10 mph    
Max Gust Speed 17 mph    
Visibility 10 miles    
Events      
Averages and records for this station are not official NWS values.
T = Trace of Precipitation, MM = Missing Value Source: NWS Daily Summary

Daily Weather History Graph

Daily Weather History Graph

Search for Another Location

Airport or City:

Trip Planner

Search our weather history database for the weather conditions in past years. The results will help you decide how hot, cold, wet, or windy it might be!

Date:

Astronomy

Sep. 14, 2013 Rise Set
Actual Time 6:50 AM CDT 7:16 PM CDT
Civil Twilight 6:25 AM CDT 7:41 PM CDT
Nautical Twilight 5:55 AM CDT 8:11 PM CDT
Astronomical Twilight 5:25 AM CDT 8:41 PM CDT
Moon 3:49 PM CDT (9/14) 1:32 AM CDT (9/14)
Length of Visible Light 13h 16m
Length of Day
12h 25m
Waxing Gibbous, 72% of the Moon is Illuminated
Sep 14
Waxing Gibbous
Sep 19
Full
Sep 26
Last Quarter
Oct 4
New
Oct 11
First Quarter

Hourly Weather History & Observations

Time (CDT) Temp. Dew Point Humidity Pressure Visibility Wind Dir Wind Speed Gust Speed Precip Events Conditions
12:58 AM 60.3 °F 55.9 °F 86% 30.04 in 10.0 mi West 1.2 mph - N/A   Clear
1:58 AM 58.5 °F 55.4 °F 90% 30.04 in 10.0 mi Calm Calm - N/A   Clear
2:58 AM 56.3 °F 52.5 °F 87% 30.04 in 10.0 mi East 3.5 mph - N/A   Clear
3:58 AM 56.7 °F 53.8 °F 90% 30.04 in 10.0 mi West 1.2 mph - N/A   Clear
4:58 AM 55.4 °F 52.7 °F 91% 30.04 in 10.0 mi West 3.5 mph - N/A   Clear
5:58 AM 55.0 °F 51.6 °F 88% 30.06 in 10.0 mi Calm Calm - N/A   Clear
6:58 AM 55.4 °F 52.5 °F 90% 30.08 in 10.0 mi Calm Calm - N/A   Clear
7:58 AM 60.1 °F 54.7 °F 82% 30.09 in 10.0 mi Variable 2.3 mph - N/A   Clear
8:58 AM 64.8 °F 55.9 °F 73% 30.11 in 10.0 mi East 10.4 mph - N/A   Clear
9:58 AM 68.9 °F 52.9 °F 57% 30.12 in 10.0 mi East 9.2 mph - N/A   Clear
10:58 AM 72.1 °F 52.2 °F 49% 30.12 in 10.0 mi East 10.4 mph - N/A   Clear
11:58 AM 74.1 °F 51.3 °F 45% 30.11 in 10.0 mi East 9.2 mph 16.1 mph N/A   Clear
12:58 PM 75.6 °F 48.9 °F 39% 30.09 in 10.0 mi ENE 9.2 mph 17.3 mph N/A   Clear
1:58 PM 76.8 °F 49.8 °F 39% 30.08 in 10.0 mi ESE 8.1 mph - N/A   Clear
2:58 PM 78.3 °F 48.7 °F 35% 30.06 in 10.0 mi NE 6.9 mph - N/A   Clear
3:58 PM 79.2 °F 49.6 °F 35% 30.04 in 10.0 mi East 6.9 mph - N/A   Clear
4:58 PM 78.4 °F 47.3 °F 33% 30.03 in 10.0 mi East 10.4 mph - N/A   Clear
5:58 PM 78.1 °F 48.7 °F 36% 30.03 in 10.0 mi ENE 5.8 mph - N/A   Clear
6:58 PM 74.3 °F 51.1 °F 44% 30.04 in 10.0 mi East 8.1 mph - N/A   Clear
7:58 PM 67.1 °F 51.6 °F 57% 30.04 in 10.0 mi ENE 5.8 mph - N/A   Clear
8:58 PM 61.9 °F 52.5 °F 71% 30.06 in 10.0 mi Calm Calm - N/A   Clear
9:58 PM 58.5 °F 51.8 °F 79% 30.06 in 10.0 mi NE 4.6 mph - N/A   Clear
10:58 PM 56.1 °F 51.8 °F 85% 30.07 in 10.0 mi Calm Calm - N/A   Clear
11:58 PM 55.6 °F 50.9 °F 84% 30.07 in 10.0 mi Calm Calm - N/A   Clear